Elizabethton, TN

9:54 PM EDT on May 27, 2017 (GMT -0400)
Elizabethton

Weather History for K0A9 - October, 2012

Change the Weather History Date:

Wednesday, October 17, 2012

  Actual Average (KTRI) Record (KTRI)
Temperature  
Mean Temperature 56 °F -  
Max Temperature 73 °F 68 °F 84 °F (2007)
Min Temperature 39 °F 44 °F 27 °F (1943)
Degree Days  
Heating Degree Days 9    
Growing Degree Days 6 (Base 50)    
Moisture  
Dew Point 41 °F    
Average Humidity 65    
Maximum Humidity 93    
Minimum Humidity 31    
Precipitation  
Precipitation 0.00 in - - ()
Sea Level Pressure  
Sea Level Pressure 29.92 in    
Wind  
Wind Speed 3 mph (ENE)    
Max Wind Speed 8 mph    
Max Gust Speed -    
Visibility 10 miles    
Events      
Averages and records for this station are not official NWS values.
T = Trace of Precipitation, MM = Missing Value Source: NWS Daily Summary

Daily Weather History Graph

Daily Weather History Graph

Search for Another Location

Airport or City:

Trip Planner

Search our weather history database for the weather conditions in past years. The results will help you decide how hot, cold, wet, or windy it might be!

Date:

Astronomy

Oct. 17, 2012 Rise Set
Actual Time 7:38 AM EDT 6:49 PM EDT
Civil Twilight 7:11 AM EDT 7:15 PM EDT
Nautical Twilight 6:42 AM EDT 7:45 PM EDT
Astronomical Twilight 6:12 AM EDT 8:14 PM EDT
Moon 10:05 AM EDT (10/17) 8:29 PM EDT (10/17)
Length of Visible Light 12h 03m
Length of Day
11h 11m
Waxing Crescent, 7% of the Moon is Illuminated
Oct 17
Waxing Crescent
Oct 21
First Quarter
Oct 29
Full
Nov 6
Last Quarter
Nov 13
New

Hourly Weather History & Observations

Time (EDT) Temp. Windchill Dew Point Humidity Pressure Visibility Wind Dir Wind Speed Gust Speed Precip Events Conditions
12:55 AM 42.8 °F - 39.2 °F 87% 29.95 in 10.0 mi Calm Calm - N/A   Clear
1:15 AM 42.8 °F 41.1 °F 39.2 °F 87% 29.94 in 10.0 mi NE 3.5 mph - N/A   Clear
1:35 AM 44.6 °F - 39.2 °F 81% 29.95 in 10.0 mi Calm Calm - N/A   Clear
1:55 AM 42.8 °F - 39.2 °F 87% 29.95 in 10.0 mi Calm Calm - N/A   Clear
2:15 AM 42.8 °F 40.1 °F 39.2 °F 87% 29.96 in 10.0 mi NE 4.6 mph - N/A   Clear
2:35 AM 42.8 °F - 39.2 °F 87% 29.96 in 10.0 mi Calm Calm - N/A   Clear
2:55 AM 42.8 °F - 39.2 °F 87% 29.96 in 10.0 mi Calm Calm - N/A   Clear
3:15 AM 42.8 °F - 39.2 °F 87% 29.96 in 10.0 mi Calm Calm - N/A   Clear
3:35 AM 42.8 °F 41.1 °F 39.2 °F 87% 29.95 in 10.0 mi ENE 3.5 mph - N/A   Clear
3:55 AM 41.0 °F 38.0 °F 39.2 °F 93% 29.95 in 10.0 mi NE 4.6 mph - N/A   Clear
4:15 AM 41.0 °F 39.0 °F 39.2 °F 93% 29.95 in 10.0 mi NE 3.5 mph - N/A   Clear
4:35 AM 41.0 °F - 37.4 °F 87% 29.95 in 10.0 mi Calm Calm - N/A   Clear
4:55 AM 39.2 °F 37.0 °F 37.4 °F 93% 29.95 in 10.0 mi NE 3.5 mph - N/A   Clear
5:15 AM 39.2 °F - 37.4 °F 93% 29.96 in 10.0 mi Calm Calm - N/A   Clear
5:35 AM 39.2 °F - 37.4 °F 93% 29.97 in 10.0 mi Calm Calm - N/A   Clear
5:55 AM 39.2 °F 37.0 °F 37.4 °F 93% 29.97 in 10.0 mi ENE 3.5 mph - N/A   Clear
6:15 AM 39.2 °F 37.0 °F 37.4 °F 93% 29.97 in 10.0 mi ENE 3.5 mph - N/A   Clear
6:35 AM 39.2 °F 35.9 °F 37.4 °F 93% 29.97 in 10.0 mi NE 4.6 mph - N/A   Clear
6:55 AM 39.2 °F 37.0 °F 37.4 °F 93% 29.98 in 10.0 mi NE 3.5 mph - N/A   Clear
7:15 AM 39.2 °F 37.0 °F 37.4 °F 93% 29.97 in 10.0 mi NE 3.5 mph - N/A   Clear
7:35 AM 39.2 °F 35.9 °F 37.4 °F 93% 29.98 in 10.0 mi NE 4.6 mph - N/A   Clear
7:55 AM 39.2 °F 37.0 °F 37.4 °F 93% 29.98 in 10.0 mi NE 3.5 mph - N/A   Clear
8:15 AM 39.2 °F 37.0 °F 37.4 °F 93% 29.98 in 10.0 mi NE 3.5 mph - N/A   Clear
8:35 AM 41.0 °F 38.0 °F 37.4 °F 87% 29.99 in 10.0 mi NNE 4.6 mph - N/A   Clear
8:55 AM 44.6 °F 42.2 °F 39.2 °F 81% 30.00 in 10.0 mi ENE 4.6 mph - N/A   Clear
9:15 AM 44.6 °F 41.4 °F 39.2 °F 81% 30.00 in 10.0 mi ENE 5.8 mph - N/A   Clear
9:35 AM 46.4 °F 43.5 °F 41.0 °F 81% 30.00 in 10.0 mi ENE 5.8 mph - N/A   Clear
9:55 AM 48.2 °F - 42.8 °F 82% 29.99 in 10.0 mi ENE 6.9 mph - N/A   Clear
10:15 AM 51.8 °F - 42.8 °F 71% 29.98 in 10.0 mi ENE 4.6 mph - N/A   Clear
10:35 AM 53.6 °F - 42.8 °F 67% 29.98 in 10.0 mi East 4.6 mph - N/A   Clear
10:55 AM 53.6 °F - 42.8 °F 67% 29.98 in 10.0 mi East 4.6 mph - N/A   Clear
11:15 AM 57.2 °F - 42.8 °F 59% 29.97 in 10.0 mi East 3.5 mph - N/A   Clear
11:35 AM 59.0 °F - 42.8 °F 55% 29.97 in 10.0 mi Calm Calm - N/A   Clear
11:55 AM 60.8 °F - 42.8 °F 52% 29.97 in 10.0 mi Calm Calm - N/A   Clear
12:15 PM 62.6 °F - 39.2 °F 42% 29.96 in 10.0 mi Calm Calm - N/A   Clear
12:35 PM 66.2 °F - 39.2 °F 37% 29.94 in 10.0 mi Calm Calm - N/A   Clear
12:55 PM 66.2 °F - 42.8 °F 43% 29.93 in 10.0 mi Variable 3.5 mph - N/A   Clear
1:15 PM 69.8 °F - 44.6 °F 40% 29.92 in 10.0 mi NE 3.5 mph - N/A   Clear
1:35 PM 66.2 °F - 42.8 °F 43% 29.91 in 10.0 mi Calm Calm - N/A   Clear
1:55 PM 69.8 °F - 42.8 °F 38% 29.90 in 10.0 mi Calm Calm - N/A   Clear
2:15 PM 69.8 °F - 42.8 °F 38% 29.88 in 10.0 mi Variable 5.8 mph - N/A   Clear
2:35 PM 71.6 °F - 44.6 °F 38% 29.87 in 10.0 mi West 4.6 mph - N/A   Clear
2:55 PM 71.6 °F - 42.8 °F 35% 29.87 in 10.0 mi Variable 5.8 mph - N/A   Clear
3:15 PM 69.8 °F - 39.2 °F 33% 29.86 in 10.0 mi Calm Calm - N/A   Clear
3:35 PM 71.6 °F - 39.2 °F 31% 29.85 in 10.0 mi Calm Calm - N/A   Clear
3:55 PM 71.6 °F - 39.2 °F 31% 29.85 in 10.0 mi Calm Calm - N/A   Clear
4:15 PM 73.4 °F - 41.0 °F 31% 29.85 in 10.0 mi Calm Calm - N/A   Clear
4:35 PM 71.6 °F - 39.2 °F 31% 29.85 in 10.0 mi ESE 4.6 mph - N/A   Clear
4:55 PM 71.6 °F - 39.2 °F 31% 29.85 in 10.0 mi Calm Calm - N/A   Clear
5:15 PM 69.8 °F - 41.0 °F 35% 29.84 in 10.0 mi East 3.5 mph - N/A   Clear
5:35 PM 69.8 °F - 41.0 °F 35% 29.84 in 10.0 mi SSW 5.8 mph - N/A   Clear
5:55 PM 69.8 °F - 41.0 °F 35% 29.84 in 10.0 mi SSW 8.1 mph - N/A   Clear
6:15 PM 68.0 °F - 42.8 °F 40% 29.84 in 10.0 mi SSE 3.5 mph - N/A   Clear
6:35 PM 64.4 °F - 44.6 °F 49% 29.84 in 10.0 mi Variable 5.8 mph - N/A   Clear
6:55 PM 64.4 °F - 44.6 °F 49% 29.84 in 10.0 mi East 4.6 mph - N/A   Clear
7:15 PM 60.8 °F - 44.6 °F 55% 29.85 in 10.0 mi East 3.5 mph - N/A   Clear
7:55 PM 60.8 °F - 44.6 °F 55% 29.87 in 10.0 mi East 3.5 mph - N/A   Clear
8:15 PM 60.8 °F - 44.6 °F 55% 29.87 in 10.0 mi Variable 3.5 mph - N/A   Clear
8:35 PM 59.0 °F - 44.6 °F 59% 29.87 in 10.0 mi East 3.5 mph - N/A   Clear
8:55 PM 57.2 °F - 44.6 °F 63% 29.87 in 10.0 mi ENE 4.6 mph - N/A   Clear
9:15 PM 57.2 °F - 44.6 °F 63% 29.87 in 10.0 mi ENE 3.5 mph - N/A   Clear
9:35 PM 57.2 °F - 42.8 °F 59% 29.87 in 10.0 mi NE 4.6 mph - N/A   Clear
9:55 PM 57.2 °F - 44.6 °F 63% 29.87 in 10.0 mi ENE 5.8 mph - N/A   Clear
10:15 PM 57.2 °F - 42.8 °F 59% 29.87 in 10.0 mi NE 3.5 mph - N/A   Clear
10:35 PM 55.4 °F - 44.6 °F 67% 29.86 in 10.0 mi East 3.5 mph - N/A   Clear
10:55 PM 55.4 °F - 42.8 °F 63% 29.85 in 10.0 mi ENE 6.9 mph - N/A   Clear
11:15 PM 55.4 °F - 42.8 °F 63% 29.84 in 10.0 mi ENE 6.9 mph - N/A   Clear
11:35 PM 55.4 °F - 42.8 °F 63% 29.83 in 10.0 mi NE 5.8 mph - N/A   Clear
11:55 PM 55.4 °F - 42.8 °F 63% 29.83 in 10.0 mi East 5.8 mph - N/A   Clear